Location: California Mobile Home Park
(33.7461°N, 117.9092°W)
Time: 06:47:35
(UTC+00:00)

Cosmos 1378 - Pass Details

Date: 29 June 2022
Orbit: 481 x 490 km, 82.5° (Epoch: 11 August)

Event Time Altitude Azimuth Distance (km) Brightness Sun altitude
Rises 12:11:32 0° 350° (N) 2,574 7.1 -6.6°
Reaches altitude 10° 12:13:39 10° 348° (NNW) 1,689 6.1 -6.2°
Maximum altitude 12:17:20 70° 265° (W) 527 3.1 -5.6°
Drops below altitude 10° 12:20:59 10° 182° (S) 1,676 5.5 -5.0°
Sets 12:23:05 0° 180° (S) 2,552 6.4 -4.6°
